Location: Jastrz?bniki
(50.3667°N, 20.3833°E)
Time: 11:53:40
(UTC+00:00)

Resurs 1-4 Rocket - Pass Details

Date: 05 August 2024
Orbit: 798 x 813 km, 98.7° (Epoch: 06 September)

Event Time Altitude Azimuth Distance (km) Brightness Sun altitude
Rises 01:17:24 0° 12° (NNE) 3,350 6.5 -14.8°
Reaches altitude 10° 01:19:47 10° 9° (N) 2,413 5.5 -14.6°
Maximum altitude 01:25:01 60° 291° (WNW) 930 2.3 -14.1°
Enters shadow 01:28:38 20° 217° (SW) 1,796 3.3 -13.7°
